Wright-Patt AFB, OH

2:38 AM EDT on August 23, 2017 (GMT -0400)
Wright-Patterson Air Force Base

Weather History for KFFO - January, 2013

Change the Weather History Date:

Saturday, January 19, 2013

  Actual Average Record
Temperature  
Mean Temperature 44 °F -  
Max Temperature 53 °F 32 °F 57 °F (2006)
Min Temperature 35 °F 16 °F 0 °F (1997)
Degree Days  
Heating Degree Days 21    
Moisture  
Dew Point 20 °F    
Average Humidity 39    
Maximum Humidity 52    
Minimum Humidity 26    
Precipitation  
Precipitation 0.00 in - - ()
Sea Level Pressure  
Sea Level Pressure 30.05 in    
Wind  
Wind Speed 19 mph (SSW)    
Max Wind Speed 26 mph    
Max Gust Speed 34 mph    
Visibility 10 miles    
Events      
Averages and records for this station are not official NWS values.
T = Trace of Precipitation, MM = Missing Value Source: NWS Daily Summary

Daily Weather History Graph

Daily Weather History Graph

Search for Another Location

Airport or City:

Trip Planner

Search our weather history database for the weather conditions in past years. The results will help you decide how hot, cold, wet, or windy it might be!

Date:

Astronomy

Jan. 19, 2013 Rise Set
Actual Time 7:53 AM EST 5:40 PM EST
Civil Twilight 7:24 AM EST 6:10 PM EST
Nautical Twilight 6:51 AM EST 6:43 PM EST
Astronomical Twilight 6:19 AM EST 7:15 PM EST
Moon 12:06 PM EST (1/19) 1:27 AM EST (1/19)
Length of Visible Light 10h 45m
Length of Day
9h 47m
First Quarter, 57% of the Moon is Illuminated
Jan 19
First Quarter
Jan 26
Full
Feb 3
Last Quarter
Feb 10
New
Feb 17
First Quarter

Hourly Weather History & Observations

Time (EST) Temp. Windchill Dew Point Humidity Pressure Visibility Wind Dir Wind Speed Gust Speed Precip Events Conditions
12:55 AM 35.8 °F 25.4 °F 19.2 °F 51% 30.21 in 10.0 mi SSW 18.4 mph - N/A   Clear
1:55 AM 36.3 °F 26.4 °F 19.2 °F 50% 30.19 in 10.0 mi South 17.3 mph - N/A   Clear
2:55 AM 37.6 °F 28.4 °F 18.7 °F 47% 30.19 in 10.0 mi SSW 16.1 mph - N/A   Clear
3:55 AM 37.4 °F 27.8 °F 19.8 °F 49% 30.18 in 10.0 mi SSW 17.3 mph - N/A   Clear
4:55 AM 36.7 °F 27.6 °F 20.3 °F 52% 30.17 in 10.0 mi SSW 15.0 mph - N/A   Clear
5:55 AM 37.6 °F 28.1 °F 19.9 °F 49% 30.17 in 10.0 mi SSW 17.3 mph - N/A   Clear
6:55 AM 37.9 °F 28.2 °F 18.9 °F 46% 30.16 in 10.0 mi SSW 18.4 mph - N/A   Clear
7:55 AM 37.8 °F 28.6 °F 19.6 °F 48% 30.16 in 10.0 mi South 16.1 mph - N/A   Clear
8:55 AM 38.8 °F 29.7 °F 20.8 °F 48% 30.15 in 10.0 mi SSW 17.3 mph - N/A   Clear
9:55 AM 42.4 °F 33.8 °F 19.9 °F 41% 30.15 in 10.0 mi SSW 19.6 mph 29.9 mph N/A   Clear
10:55 AM 45.9 °F 38.0 °F 19.0 °F 34% 30.14 in 10.0 mi SSW 20.7 mph 28.8 mph N/A   Clear
11:55 AM 48.2 °F - 19.0 °F 32% 30.09 in 10.0 mi SSW 24.2 mph 32.2 mph N/A   Clear
12:55 PM 50.7 °F - 19.8 °F 30% 30.04 in 10.0 mi SSW 19.6 mph 33.4 mph N/A   Clear
1:55 PM 52.5 °F - 19.6 °F 27% 30.00 in 10.0 mi South 25.3 mph 31.1 mph N/A   Clear
2:55 PM 53.1 °F - 19.8 °F 27% 29.96 in 10.0 mi South 26.5 mph 34.5 mph N/A   Clear
3:55 PM 53.2 °F - 19.2 °F 26% 29.94 in 10.0 mi South 21.9 mph 26.5 mph N/A   Clear
4:55 PM 52.3 °F - 19.0 °F 27% 29.91 in 10.0 mi South 21.9 mph 31.1 mph N/A   Partly Cloudy
5:55 PM 49.8 °F - 19.8 °F 31% 29.90 in 10.0 mi South 18.4 mph - N/A   Mostly Cloudy
6:55 PM 49.3 °F - 19.9 °F 31% 29.91 in 10.0 mi SSW 18.4 mph - N/A   Mostly Cloudy
7:55 PM 48.2 °F - 21.2 °F 34% 29.92 in 10.0 mi SSW 19.6 mph 29.9 mph N/A   Clear
8:55 PM 48.0 °F - 22.3 °F 36% 29.90 in 10.0 mi SSW 23.0 mph 34.5 mph N/A   Clear
9:55 PM 46.9 °F - 22.8 °F 39% 29.90 in 10.0 mi SSW 17.3 mph 26.5 mph N/A   Clear
10:55 PM 45.5 °F 38.3 °F 23.7 °F 42% 29.89 in 10.0 mi SSW 17.3 mph 25.3 mph N/A   Clear
11:55 PM 45.0 °F 37.4 °F 24.8 °F 45% 29.89 in 10.0 mi SW 18.4 mph - N/A   Clear